| time (UTC) | temp F | wind direction | speed MPH | gust MPH | rain 1hr in | rain 24hr in | rain mn in | humidity % | barometer mb |
| 20260505021804 | 74 | 174 | 2.0 | 12.0 | 0.00 | 0.00 | 0.00 | 37 | 1007.3 |
| 20260505021203 | 75 | 176 | 3.0 | 12.0 | 0.00 | 0.00 | 0.00 | 36 | 1007.3 |
| 20260505020603 | 76 | 186 | 2.0 | 10.0 | 0.00 | 0.00 | 0.00 | 36 | 1007.3 |
| 20260505020004 | 77 | 185 | 2.0 | 10.0 | 0.00 | 0.00 | 0.00 | 35 | 1007.1 |
| 20260505015403 | 78 | 193 | 2.0 | 10.0 | 0.00 | 0.00 | 0.00 | 34 | 1007.1 |
| 20260505014803 | 79 | 187 | 2.0 | 10.0 | 0.00 | 0.00 | 0.00 | 33 | 1007.1 |
| 20260505014203 | 79 | 186 | 3.0 | 10.0 | 0.00 | 0.00 | 0.00 | 32 | 1007.0 |
| 20260505013603 | 80 | 186 | 2.0 | 9.0 | 0.00 | 0.00 | 0.00 | 30 | 1007.0 |
| 20260505013003 | 80 | 183 | 2.0 | 10.0 | 0.00 | 0.00 | 0.00 | 31 | 1007.0 |
| 20260505012403 | 81 | 187 | 1.0 | 13.0 | 0.00 | 0.00 | 0.00 | 31 | 1007.1 |
| 20260505011803 | 81 | 193 | 1.0 | 13.0 | 0.00 | 0.00 | 0.00 | 32 | 1007.1 |
| 20260505011203 | 81 | 195 | 3.0 | 11.0 | 0.00 | 0.00 | 0.00 | 32 | 1007.1 |
| 20260505010603 | 81 | 187 | 3.0 | 12.0 | 0.00 | 0.00 | 0.00 | 30 | 1007.2 |
| 20260505010004 | 82 | 181 | 3.0 | 12.0 | 0.00 | 0.00 | 0.00 | 30 | 1007.1 |
| 20260505005403 | 82 | 181 | 2.0 | 9.0 | 0.00 | 0.00 | 0.00 | 30 | 1007.2 |
| 20260505004803 | 82 | 190 | 2.0 | 9.0 | 0.00 | 0.00 | 0.00 | 31 | 1007.2 |
| 20260505004203 | 82 | 199 | 3.0 | 8.0 | 0.00 | 0.00 | 0.00 | 30 | 1007.0 |
| 20260505003603 | 82 | 196 | 3.0 | 13.0 | 0.00 | 0.00 | 0.00 | 30 | 1007.1 |
| 20260505003003 | 82 | 200 | 4.0 | 13.0 | 0.00 | 0.00 | 0.00 | 29 | 1007.1 |
| 20260505002403 | 82 | 210 | 3.0 | 13.0 | 0.00 | 0.00 | 0.00 | 31 | 1007.0 |
| 20260505001803 | 81 | 202 | 3.0 | 11.0 | 0.00 | 0.00 | 0.00 | 32 | 1007.0 |
| 20260505001203 | 80 | 186 | 4.0 | 15.0 | 0.00 | 0.00 | 0.00 | 32 | 1006.9 |
| 20260505000603 | 79 | 183 | 5.0 | 15.0 | 0.00 | 0.00 | 0.00 | 32 | 1007.0 |
| 20260505000003 | 79 | 185 | 5.0 | 14.0 | 0.00 | 0.00 | 0.00 | 31 | 1006.9 |
| 20260504235403 | 79 | 185 | 4.0 | 16.0 | 0.00 | 0.00 | 0.00 | 30 | 1007.0 |
| 20260504234803 | 80 | 184 | 4.0 | 16.0 | 0.00 | 0.00 | 0.00 | 29 | 1007.0 |
| 20260504234203 | 81 | 187 | 4.0 | 16.0 | 0.00 | 0.00 | 0.00 | 28 | 1007.0 |
| 20260504233603 | 82 | 191 | 3.0 | 15.0 | 0.00 | 0.00 | 0.00 | 26 | 1007.0 |
| 20260504233003 | 84 | 198 | 4.0 | 14.0 | 0.00 | 0.00 | 0.00 | 27 | 1006.9 |
| 20260504232403 | 84 | 208 | 4.0 | 14.0 | 0.00 | 0.00 | 0.00 | 29 | 1007.0 |
| 20260504231803 | 84 | 204 | 4.0 | 16.0 | 0.00 | 0.00 | 0.00 | 27 | 1007.0 |
| 20260504231203 | 85 | 189 | 4.0 | 16.0 | 0.00 | 0.00 | 0.00 | 26 | 1007.1 |
| 20260504230603 | 85 | 188 | 2.0 | 14.0 | 0.00 | 0.00 | 0.00 | 26 | 1007.1 |
| 20260504230004 | 86 | 218 | 1.0 | 10.0 | 0.00 | 0.00 | 0.00 | 28 | 1007.2 |
| 20260504225403 | 85 | 192 | 5.0 | 17.0 | 0.00 | 0.00 | 0.00 | 27 | 1007.1 |
| 20260504224803 | 85 | 196 | 5.0 | 17.0 | 0.00 | 0.00 | 0.00 | 28 | 1007.1 |
| 20260504224203 | 86 | 190 | 4.0 | 14.0 | 0.00 | 0.00 | 0.00 | 26 | 1007.2 |
| 20260504223603 | 86 | 187 | 4.0 | 18.0 | 0.00 | 0.00 | 0.00 | 24 | 1007.2 |
| 20260504223003 | 86 | 199 | 4.0 | 18.0 | 0.00 | 0.00 | 0.00 | 29 | 1007.0 |
| 20260504222403 | 86 | 187 | 5.0 | 16.0 | 0.00 | 0.00 | 0.00 | 30 | 1007.3 |
| 20260504221803 | 86 | 193 | 5.0 | 21.0 | 0.00 | 0.00 | 0.00 | 29 | 1007.3 |
| 20260504221203 | 86 | 212 | 3.0 | 14.0 | 0.00 | 0.00 | 0.00 | 30 | 1007.4 |
| 20260504220603 | 86 | 190 | 4.0 | 17.0 | 0.00 | 0.00 | 0.00 | 32 | 1007.5 |
| 20260504220004 | 86 | 187 | 3.0 | 17.0 | 0.00 | 0.00 | 0.00 | 30 | 1007.6 |
| 20260504215403 | 86 | 179 | 3.0 | 19.0 | 0.00 | 0.00 | 0.00 | 28 | 1007.6 |
| 20260504214803 | 86 | 180 | 4.0 | 19.0 | 0.00 | 0.00 | 0.00 | 30 | 1007.7 |
| 20260504214203 | 86 | 184 | 2.0 | 13.0 | 0.00 | 0.00 | 0.00 | 31 | 1007.8 |
| 20260504213603 | 86 | 181 | 1.0 | 12.0 | 0.00 | 0.00 | 0.00 | 27 | 1007.8 |
| 20260504213003 | 86 | 201 | 0.0 | 8.0 | 0.00 | 0.00 | 0.00 | 29 | 1008.0 |
| 20260504212403 | 86 | 208 | 0.0 | 7.0 | 0.00 | 0.00 | 0.00 | 29 | 1007.9 |
| 20260504211803 | 86 | 191 | 0.0 | 7.0 | 0.00 | 0.00 | 0.00 | 26 | 1008.0 |
| 20260504211203 | 86 | 193 | 1.0 | 11.0 | 0.00 | 0.00 | 0.00 | 28 | 1008.0 |
| 20260504210603 | 86 | 217 | 1.0 | 14.0 | 0.00 | 0.00 | 0.00 | 26 | 1008.0 |
| 20260504210004 | 86 | 259 | 1.0 | 14.0 | 0.00 | 0.00 | 0.00 | 28 | 1008.1 |
| 20260504205403 | 86 | 214 | 2.0 | 15.0 | 0.00 | 0.00 | 0.00 | 28 | 1008.2 |
| 20260504204803 | 85 | 177 | 1.0 | 15.0 | 0.00 | 0.00 | 0.00 | 26 | 1008.1 |
| 20260504204203 | 86 | 178 | 1.0 | 14.0 | 0.00 | 0.00 | 0.00 | 27 | 1008.2 |
| 20260504203603 | 86 | 167 | 1.0 | 9.0 | 0.00 | 0.00 | 0.00 | 30 | 1008.3 |
| 20260504203003 | 86 | 166 | 1.0 | 12.0 | 0.00 | 0.00 | 0.00 | 26 | 1008.4 |
| 20260504202403 | 86 | 203 | 0.0 | 12.0 | 0.00 | 0.00 | 0.00 | 28 | 1008.5 |
| 20260504201803 | 86 | 192 | 0.0 | 8.0 | 0.00 | 0.00 | 0.00 | 29 | 1008.4 |
| 20260504201203 | 86 | 187 | 1.0 | 9.0 | 0.00 | 0.00 | 0.00 | 28 | 1008.5 |
| 20260504200603 | 86 | 181 | 1.0 | 9.0 | 0.00 | 0.00 | 0.00 | 30 | 1008.5 |
| 20260504200003 | 86 | 185 | 1.0 | 8.0 | 0.00 | 0.00 | 0.00 | 25 | 1008.6 |
| 20260504195403 | 86 | 175 | 0.0 | 9.0 | 0.00 | 0.00 | 0.00 | 28 | 1008.7 |
| 20260504194803 | 86 | 173 | 1.0 | 11.0 | 0.00 | 0.00 | 0.00 | 30 | 1008.7 |
| 20260504194203 | 85 | 172 | 0.0 | 11.0 | 0.00 | 0.00 | 0.00 | 28 | 1008.7 |
| 20260504193603 | 85 | 192 | 1.0 | 8.0 | 0.00 | 0.00 | 0.00 | 32 | 1008.7 |
| 20260504193003 | 84 | 190 | 2.0 | 16.0 | 0.00 | 0.00 | 0.00 | 29 | 1008.8 |
| 20260504192403 | 84 | 200 | 1.0 | 16.0 | 0.00 | 0.00 | 0.00 | 28 | 1008.9 |
| 20260504191804 | 83 | 0 | 0.0 | 0.0 | 0.00 | 0.00 | 0.00 | 28 | 1009.0 |
| 20260504191203 | 83 | 0 | 0.0 | 0.0 | 0.00 | 0.00 | 0.00 | 32 | 1009.0 |
| 20260504190603 | 82 | 0 | 0.0 | 0.0 | 0.00 | 0.00 | 0.00 | 32 | 1009.0 |
| 20260504190003 | 81 | 0 | 0.0 | 0.0 | 0.00 | 0.00 | 0.00 | 37 | 1009.1 |
| 20260504185403 | 80 | 0 | 0.0 | 0.0 | 0.00 | 0.00 | 0.00 | 38 | 1009.3 |
| 20260504184803 | 80 | 0 | 0.0 | 0.0 | 0.00 | 0.00 | 0.00 | 43 | 1009.3 |
| 20260504184203 | 79 | 0 | 0.0 | 0.0 | 0.00 | 0.00 | 0.00 | 36 | 1009.3 |
| 20260504183603 | 78 | 0 | 0.0 | 0.0 | 0.00 | 0.00 | 0.00 | 45 | 1009.4 |
| 20260504183003 | 78 | 0 | 0.0 | 0.0 | 0.00 | 0.00 | 0.00 | 37 | 1009.4 |
| 20260504182403 | 78 | 0 | 0.0 | 0.0 | 0.00 | 0.00 | 0.00 | 45 | 1009.5 |
| 20260504181803 | 77 | 0 | 0.0 | 0.0 | 0.00 | 0.00 | 0.00 | 42 | 1009.6 |
| 20260504181203 | 77 | 0 | 0.0 | 0.0 | 0.00 | 0.00 | 0.00 | 42 | 1009.5 |
| 20260504180603 | 76 | 0 | 0.0 | 0.0 | 0.00 | 0.00 | 0.00 | 44 | 1009.6 |
| 20260504180004 | 75 | 0 | 0.0 | 0.0 | 0.00 | 0.00 | 0.00 | 45 | 1009.6 |
| 20260504175404 | 74 | 0 | 0.0 | 0.0 | 0.00 | 0.00 | 0.00 | 46 | 1009.7 |
| 20260504174803 | 74 | 0 | 0.0 | 0.0 | 0.00 | 0.00 | 0.00 | 41 | 1009.7 |
| 20260504174203 | 73 | 0 | 0.0 | 0.0 | 0.00 | 0.00 | 0.00 | 43 | 1009.7 |
| 20260504173603 | 72 | 0 | 0.0 | 0.0 | 0.00 | 0.00 | 0.00 | 42 | 1009.8 |
| 20260504173003 | 71 | 0 | 0.0 | 0.0 | 0.00 | 0.00 | 0.00 | 43 | 1009.8 |
| 20260504172403 | 70 | 0 | 0.0 | 0.0 | 0.00 | 0.00 | 0.00 | 46 | 1009.9 |
| 20260504171803 | 69 | 0 | 0.0 | 0.0 | 0.00 | 0.00 | 0.00 | 51 | 1009.8 |
| 20260504171203 | 68 | 0 | 0.0 | 0.0 | 0.00 | 0.00 | 0.00 | 48 | 1009.9 |
| 20260504170603 | 68 | 0 | 0.0 | 0.0 | 0.00 | 0.00 | 0.00 | 48 | 1009.9 |
| 20260504150603 | 48 | 0 | 0.0 | 0.0 | 0.00 | 0.00 | 0.00 | 74 | 1010.8 |
| 20260504141203 | 43 | 0 | 0.0 | 0.0 | 0.00 | 0.00 | 0.00 | 72 | 1011.0 |
| 20260504140603 | 43 | 0 | 0.0 | 0.0 | 0.00 | 0.00 | 0.00 | 72 | 1010.9 |
| 20260504130603 | 42 | 86 | 4.0 | 7.0 | 0.00 | 0.00 | 0.00 | 75 | 1010.5 |
| 20260504110603 | 43 | 69 | 0.0 | 4.0 | 0.00 | 0.00 | 0.00 | 81 | 1010.6 |
| 20260504100603 | 44 | 91 | 2.0 | 6.0 | 0.00 | 0.00 | 0.00 | 81 | 1010.6 |
| 20260504081803 | 47 | 83 | 1.0 | 4.0 | 0.00 | 0.00 | 0.00 | 80 | 1010.6 |
| 20260504081203 | 47 | 93 | 0.0 | 2.0 | 0.00 | 0.00 | 0.00 | 80 | 1010.7 |
| 20260504080603 | 48 | 94 | 1.0 | 6.0 | 0.00 | 0.00 | 0.00 | 80 | 1010.6 |
| 20260504050603 | 56 | 0 | 0.0 | 0.0 | 0.00 | 0.00 | 0.00 | 72 | 1010.3 |
| 20260504050004 | 56 | 82 | 0.0 | 1.0 | 0.00 | 0.00 | 0.00 | 71 | 1010.2 |
| 20260504045403 | 57 | 83 | 1.0 | 6.0 | 0.00 | 0.00 | 0.00 | 70 | 1010.3 |
| 20260504044803 | 57 | 82 | 1.0 | 6.0 | 0.00 | 0.00 | 0.00 | 69 | 1010.2 |
| 20260504044203 | 58 | 69 | 0.0 | 2.0 | 0.00 | 0.00 | 0.00 | 69 | 1010.2 |
| 20260504043603 | 58 | 87 | 1.0 | 6.0 | 0.00 | 0.00 | 0.00 | 68 | 1010.1 |
| 20260504043003 | 59 | 85 | 2.0 | 6.0 | 0.00 | 0.00 | 0.00 | 68 | 1010.0 |
| 20260504042403 | 59 | 80 | 2.0 | 6.0 | 0.00 | 0.00 | 0.00 | 67 | 1010.0 |
| 20260504041803 | 60 | 77 | 1.0 | 6.0 | 0.00 | 0.00 | 0.00 | 66 | 1009.9 |
| 20260504041203 | 60 | 71 | 0.0 | 3.0 | 0.00 | 0.00 | 0.00 | 66 | 1009.9 |
| 20260504040603 | 61 | 0 | 0.0 | 0.0 | 0.00 | 0.00 | 0.00 | 64 | 1009.8 |
| 20260504040004 | 61 | 0 | 0.0 | 0.0 | 0.00 | 0.00 | 0.00 | 63 | 1009.7 |
| 20260504035403 | 62 | 0 | 0.0 | 0.0 | 0.00 | 0.00 | 0.00 | 62 | 1009.6 |
| 20260504034803 | 62 | 0 | 0.0 | 0.0 | 0.00 | 0.00 | 0.00 | 62 | 1009.5 |
| 20260504034203 | 63 | 0 | 0.0 | 0.0 | 0.00 | 0.00 | 0.00 | 60 | 1009.4 |
| 20260504033603 | 64 | 0 | 0.0 | 0.0 | 0.00 | 0.00 | 0.00 | 60 | 1009.3 |
| 20260504033003 | 65 | 0 | 0.0 | 0.0 | 0.00 | 0.00 | 0.00 | 59 | 1009.2 |
| 20260504032403 | 66 | 0 | 0.0 | 0.0 | 0.00 | 0.00 | 0.00 | 58 | 1009.2 |
| 20260504031803 | 66 | 0 | 0.0 | 0.0 | 0.00 | 0.00 | 0.00 | 57 | 1009.1 |
| 20260504031203 | 68 | 0 | 0.0 | 0.0 | 0.00 | 0.00 | 0.00 | 54 | 1009.1 |
| 20260504030603 | 68 | 0 | 0.0 | 0.0 | 0.00 | 0.00 | 0.00 | 53 | 1009.1 |
| 20260504030004 | 69 | 0 | 0.0 | 0.0 | 0.00 | 0.00 | 0.00 | 51 | 1009.1 |
| 20260504025403 | 70 | 0 | 0.0 | 0.0 | 0.00 | 0.00 | 0.00 | 48 | 1009.0 |
| 20260504024803 | 71 | 0 | 0.0 | 0.0 | 0.00 | 0.00 | 0.00 | 48 | 1009.0 |
| 20260504024203 | 72 | 0 | 0.0 | 0.0 | 0.00 | 0.00 | 0.00 | 45 | 1008.9 |
| 20260504023603 | 74 | 245 | 0.0 | 1.0 | 0.00 | 0.00 | 0.00 | 43 | 1008.8 |
| 20260504023003 | 75 | 245 | 0.0 | 1.0 | 0.00 | 0.00 | 0.00 | 40 | 1008.8 |
| 20260504022403 | 77 | 0 | 0.0 | 0.0 | 0.00 | 0.00 | 0.00 | 39 | 1008.7 |